Flag for Poland Weather past 2 weeks in Lódz, Poland

Now
67 °F

Scattered clouds.


Feels Like: 67 °F
Forecast: 52 / 67 °F
Wind: 7 mph from Northwest

Location: Lodz

Current Time: Jul 30, 2015 at 8:19:47 PM

Latest Report: Jul 30, 2015 at 7:00 PM


Visibility: 13 mi

Pressure: 29.88 "Hg

Humidity: 38%

Dew point: 41 °F

Location of LódzLocation

Historic Weather in Lódz — Graph

°F

Lódz temperature yesterday

Maximum temperature yesterday: 71 °F (at 6:00 PM)
Minimum temperature yesterday: 55 °F (at 3:00 AM)
Average temperature yesterday: 64 °F

Past Weeks' High & Low Weather Summary

 TemperatureHumidityPressure
High92 °F (Jul 18, 3:00 PM)95% (Jul 16, 6:00 AM)30.11 "Hg (Jul 16, 6:00 AM)
Low46 °F (Jul 27, 4:00 AM)31% (Jul 24, 12:00 PM)29.63 "Hg (Jul 25, 3:00 PM)
Average68 °F66%29.88 "Hg
* Reported Jul 15 7:00 PM — Jul 30 7:00 PM, Lódz, Weather by CustomWeather, © 2015

Note: Actual official high and low records may vary slightly from our data, if they occured in-between our weather recording intervals... More about our weather records

Advertising

Lódz weather history for previous 24 hours

 ConditionsComfort  
Time TempWeatherWind HumidityBarometerVisibility
7:00 PM
Thu, Jul 30
67 °FScattered clouds.7 mph38%29.88 "Hg12 mi
6:00 PM68 °FScattered clouds.9 mph38%29.87 "Hg12 mi
5:00 PM68 °FPartly sunny.9 mph38%29.86 "Hg12 mi
4:00 PM69 °FPartly sunny.9 mph35%29.85 "Hg12 mi
3:00 PM69 °FPartly sunny.8 mph37%29.84 "Hg12 mi
2:00 PM69 °FPartly sunny.9 mph37%29.85 "Hg12 mi
1:00 PM67 °FPartly sunny.8 mph43%29.85 "Hg12 mi
12:00 PM64 °FPartly sunny.8 mph47%29.85 "Hg12 mi
11:00 AM64 °FPartly sunny.8 mph53%29.84 "Hg12 mi
10:00 AM62 °FScattered clouds.9 mph57%29.84 "Hg12 mi
9:00 AM59 °FPassing clouds.8 mph64%29.85 "Hg12 mi
8:00 AM56 °FPassing clouds.6 mph75%29.85 "Hg12 mi
7:00 AM54 °FPassing clouds.5 mph78%29.84 "Hg12 mi
6:00 AM51 °FPassing clouds.3 mph88%29.84 "Hg12 mi
4:00 AM54 °FPassing clouds.5 mph93%29.83 "Hg11 mi
3:00 AM55 °FPassing clouds.5 mph93%29.81 "Hg12 mi
2:00 AM56 °FPassing clouds.3 mph91%29.80 "Hg12 mi
1:00 AM56 °FPassing clouds.2 mph93%29.79 "Hg11 mi
12:00 AM56 °FSprinkles. Overcast.2 mph91%29.78 "Hg8 mi
11:00 PM
Wed, Jul 29
57 °FRain showers. Overcast.6 mph85%29.77 "Hg7 mi
10:00 PM64 °FSprinkles. Overcast.3 mph64%29.73 "Hg12 mi
9:00 PM66 °FPassing clouds.1 mph55%29.72 "Hg12 mi
8:00 PM68 °FPartly sunny.2 mph46%29.71 "Hg12 mi
Weather by CustomWeather, © 2015

See weather overviewHow to use our weather pages